Weather History for Hobbs, NM

Change the Weather History Date:

Saturday, November 10, 2012

  Actual Average Record
Temperature  
Mean Temperature 66 °F -  
Max Temperature 80 °F 63 °F 82 °F (1999)
Min Temperature 51 °F 39 °F 16 °F (1950)
Growing Degree Days 16 (Base 50)    
Moisture  
Dew Point 40 °F    
Average Humidity 47    
Maximum Humidity 88    
Minimum Humidity 17    
Precipitation  
Precipitation 0.00 in - - ()
Sea Level Pressure  
Sea Level Pressure 29.81 in    
Wind  
Wind Speed 15 mph (SSW)    
Max Wind Speed 29 mph    
Max Gust Speed 47 mph    
Visibility 9 miles    
Events      
Averages and records for this station are not official NWS values.
T = Trace of Precipitation, MM = Missing Value Source: NWS Daily Summary

Daily Weather History Graph

Daily Weather History Graph

Search for Another Location

Airport:

Trip Planner

Search our weather history database for the weather conditions in past years. The results will help you decide how hot, cold, wet, or windy it might be!

Date:

Astronomy

Nov. 10, 2012 Rise Set
Actual Time 6:18 AM MST 4:54 PM MST
Civil Twilight 5:52 AM MST 5:20 PM MST
Nautical Twilight 5:23 AM MST 5:49 PM MST
Astronomical Twilight 4:54 AM MST 6:18 PM MST
Moon 2:37 AM MST (11/10) 2:33 PM MST (11/10)
Length of Visible Light 11h 27m
Length of Day
10h 35m
Waning Crescent, 14% of the Moon is Illuminated
Nov 10
Waning Crescent
Nov 13
New
Nov 20
First Quarter
Nov 28
Full
Dec 6
Last Quarter

Hourly Weather History & Observations

Time (MST) Temp. Dew Point Humidity Pressure Visibility Wind Dir Wind Speed Gust Speed Precip Events Conditions
12:15 AM 62.6 °F 53.6 °F 72% 29.88 in 10.0 mi SSE 18.4 mph 27.6 mph N/A   Clear
12:35 AM 60.8 °F 53.6 °F 77% 29.89 in 10.0 mi SSE 16.1 mph 25.3 mph N/A   Clear
12:55 AM 60.8 °F 53.6 °F 77% 29.88 in 10.0 mi SSE 17.3 mph 24.2 mph N/A   Clear
1:15 AM 60.8 °F 53.6 °F 77% 29.87 in 10.0 mi SSE 17.3 mph - N/A   Clear
1:35 AM 59.0 °F 53.6 °F 82% 29.87 in 10.0 mi SSE 18.4 mph 21.9 mph N/A   Clear
1:55 AM 59.0 °F 51.8 °F 77% 29.87 in 10.0 mi South 13.8 mph 20.7 mph N/A   Clear
2:15 AM 59.0 °F 51.8 °F 77% 29.89 in 10.0 mi SSW 10.4 mph - N/A   Clear
2:35 AM 57.2 °F 51.8 °F 82% 29.88 in 10.0 mi South 11.5 mph - N/A   Clear
2:55 AM 57.2 °F 51.8 °F 82% 29.88 in 10.0 mi South 10.4 mph - N/A   Clear
3:15 AM 57.2 °F 51.8 °F 82% 29.87 in 10.0 mi South 8.1 mph - N/A   Clear
3:35 AM 55.4 °F 50.0 °F 82% 29.87 in 10.0 mi South 8.1 mph - N/A   Clear
3:55 AM 55.4 °F 50.0 °F 82% 29.87 in 10.0 mi South 10.4 mph - N/A   Clear
5:50 AM 53.6 °F 50.0 °F 88% 29.85 in 10.0 mi SSE 12.7 mph - N/A   Clear
6:50 AM 53.6 °F 50.0 °F 88% 29.86 in 10.0 mi SSE 13.8 mph - N/A   Clear
7:50 AM 59.0 °F 50.0 °F 72% 29.86 in 10.0 mi SSE 18.4 mph - N/A   Clear
8:50 AM 64.4 °F 48.2 °F 56% 29.85 in 10.0 mi SSE 19.6 mph - N/A   Clear
9:50 AM 71.6 °F 44.6 °F 38% 29.83 in 10.0 mi SSE 17.3 mph 25.3 mph N/A   Clear
10:50 AM 75.2 °F 41.0 °F 29% 29.82 in 10.0 mi South 24.2 mph 31.1 mph N/A   Clear
11:50 AM 78.8 °F 33.8 °F 20% 29.78 in 9.0 mi South 28.8 mph 47.2 mph N/A   Partly Cloudy
12:50 PM 78.8 °F 32.0 °F 18% 29.74 in 10.0 mi SSW 24.2 mph 38.0 mph N/A   Partly Cloudy
1:50 PM 80.6 °F 32.0 °F 17% 29.71 in 10.0 mi South 23.0 mph 39.1 mph N/A   Partly Cloudy
2:50 PM 77.0 °F 32.0 °F 19% 29.71 in 10.0 mi South 20.7 mph 28.8 mph N/A   Scattered Clouds
3:50 PM 77.0 °F 32.0 °F 19% 29.71 in 10.0 mi South 20.7 mph 32.2 mph N/A   Scattered Clouds
4:50 PM 75.2 °F 33.8 °F 22% 29.70 in 10.0 mi South 17.3 mph 25.3 mph N/A   Partly Cloudy
5:15 PM 73.4 °F 32.0 °F 22% 29.72 in 10.0 mi SSW 9.2 mph - N/A   Clear
5:35 PM 71.6 °F 32.0 °F 23% 29.73 in 9.0 mi SSW 6.9 mph - N/A   Clear
5:50 PM 71.6 °F 28.4 °F 20% 29.74 in 8.0 mi SSW 9.2 mph - N/A   Clear
5:55 PM 71.6 °F 28.4 °F 20% 29.74 in 7.0 mi WSW 9.2 mph - N/A   Clear
6:15 PM 68.0 °F 30.2 °F 24% 29.75 in 8.0 mi WSW 11.5 mph - N/A   Clear
6:35 PM 68.0 °F 32.0 °F 26% 29.76 in 7.0 mi WSW 11.5 mph - N/A   Clear
6:55 PM 68.0 °F 32.0 °F 26% 29.77 in 5.0 mi WSW 12.7 mph - N/A   Haze
7:15 PM 66.2 °F 32.0 °F 28% 29.77 in 5.0 mi WSW 12.7 mph - N/A   Haze
7:35 PM 66.2 °F 33.8 °F 30% 29.78 in 7.0 mi West 12.7 mph - N/A   Clear
7:55 PM 64.4 °F 33.8 °F 32% 29.78 in 8.0 mi WSW 11.5 mph - N/A   Clear
8:15 PM 64.4 °F 32.0 °F 30% 29.78 in 7.0 mi West 12.7 mph - N/A   Clear
8:35 PM 64.4 °F 32.0 °F 30% 29.79 in 10.0 mi WSW 11.5 mph - N/A   Clear
9:15 PM 62.6 °F 32.0 °F 32% 29.81 in 10.0 mi WSW 11.5 mph - N/A   Clear
9:35 PM 62.6 °F 32.0 °F 32% 29.82 in 10.0 mi WSW 13.8 mph - N/A   Clear
9:55 PM 60.8 °F 32.0 °F 34% 29.82 in 10.0 mi WSW 9.2 mph - N/A   Clear
10:35 PM 57.2 °F 32.0 °F 38% 29.84 in 10.0 mi SW 4.6 mph - N/A   Clear
10:55 PM 55.4 °F 32.0 °F 41% 29.85 in 10.0 mi SW 3.5 mph - N/A   Partly Cloudy
11:15 PM 53.6 °F 32.0 °F 44% 29.84 in 10.0 mi West 6.9 mph - N/A   Scattered Clouds
11:35 PM 51.8 °F 32.0 °F 47% 29.85 in 10.0 mi Calm Calm - N/A   Partly Cloudy
11:55 PM 51.8 °F 32.0 °F 47% 29.85 in 10.0 mi Calm Calm - N/A   Clear